GW6839 Weather Reports


time (UTC)temp
C
wind
direction
speed
KPH
gust
KPH
rain 1hr
cm
rain 24hr
cm
rain mn
cm
humidity
%
barometer
mb
20260506092015 5 22 1.6 4.8 0.00 0.00 0.00 70 1008.4
20260506091513 5 273 3.2 9.7 0.00 0.00 0.00 68 1008.5
20260506091010 5 51 4.8 11.3 0.00 0.00 0.00 68 1008.6
20260506090508 5 31 3.2 4.8 0.00 0.00 0.00 68 1008.6
20260506090004 5 32 3.2 9.7 0.00 0.00 0.00 67 1008.6
20260506085501 5 354 1.6 6.4 0.00 0.00 0.00 67 1008.6
20260506084957 5 36 3.2 4.8 0.00 0.00 0.00 68 1008.6
20260506084454 5 47 0.0 3.2 0.00 0.00 0.00 68 1008.4
20260506083950 5 23 3.2 3.2 0.00 0.00 0.00 69 1008.8
20260506083448 5 31 1.6 1.6 0.00 0.00 0.00 70 1008.6
20260506082945 5 50 0.0 1.6 0.00 0.00 0.00 70 1008.6
20260506082442 5 19 1.6 3.2 0.00 0.00 0.00 69 1008.6
20260506081937 6 68 1.6 1.6 0.00 0.00 0.00 69 1008.6
20260506081436 6 40 1.6 3.2 0.00 0.00 0.00 69 1008.5
20260506080933 6 29 0.0 3.2 0.00 0.00 0.00 69 1008.6
20260506080430 6 352 1.6 1.6 0.00 0.00 0.00 70 1008.5
20260506073414 6 22 1.6 1.6 0.00 0.00 0.00 72 1008.4
20260506072911 6 42 0.0 4.8 0.00 0.00 0.00 71 1008.4
20260506072408 6 29 1.6 3.2 0.00 0.00 0.00 71 1008.4
20260506071906 6 26 3.2 4.8 0.00 0.00 0.00 71 1008.2
20260506071404 6 53 1.6 3.2 0.00 0.00 0.00 71 1008.5
20260506070900 6 88 1.6 3.2 0.00 0.00 0.00 72 1008.1
20260506070357 6 36 0.0 3.2 0.00 0.00 0.00 72 1008.1
20260506062334 7 36 1.6 3.2 0.00 0.00 0.00 71 1007.9
20260506061830 7 26 1.6 4.8 0.00 0.00 0.00 70 1008.1
20260506061327 7 5 1.6 6.4 0.00 0.00 0.00 69 1007.9
20260506060825 7 25 1.6 9.7 0.00 0.00 0.00 70 1007.8
20260506060323 8 67 1.6 3.2 0.00 0.00 0.00 70 1007.5
20260506051255 9 274 8.0 12.9 0.00 0.00 0.00 56 1007.8
20260506050753 9 255 8.0 12.9 0.00 0.00 0.00 56 1007.6
20260506050250 9 283 4.8 4.8 0.00 0.00 0.00 57 1007.5
20260506044740 9 64 1.6 6.4 0.00 0.00 0.00 55 1007.6
20260506044238 9 25 3.2 11.3 0.00 0.00 0.00 54 1007.6
20260506043735 9 262 11.3 14.5 0.00 0.00 0.00 54 1007.6
20260506043232 9 282 9.7 12.9 0.00 0.00 0.00 54 1007.7
20260506042731 10 267 6.4 12.9 0.00 0.00 0.00 54 1007.7
20260506042229 10 277 12.9 14.5 0.00 0.00 0.00 53 1007.6
20260506041727 10 277 6.4 11.3 0.00 0.00 0.00 54 1007.6
20260506041224 10 267 11.3 12.9 0.00 0.00 0.00 51 1007.6
20260506040721 10 246 6.4 12.9 0.00 0.00 0.00 52 1008.0
20260506040218 10 263 6.4 11.3 0.00 0.00 0.00 51 1007.8
20260506035715 10 240 4.8 9.7 0.00 0.00 0.00 51 1007.7
20260506035212 10 321 3.2 6.4 0.00 0.00 0.00 52 1007.7
20260506034709 10 255 4.8 6.4 0.00 0.00 0.00 51 1007.7
20260506034206 10 257 6.4 11.3 0.00 0.00 0.00 50 1007.5
20260506033703 10 250 4.8 9.7 0.00 0.00 0.00 51 1007.6
20260506033200 10 282 4.8 6.4 0.00 0.00 0.00 50 1007.6
20260506032657 10 292 6.4 9.7 0.00 0.00 0.00 49 1007.7
20260506032154 10 262 4.8 6.4 0.00 0.00 0.00 49 1007.8
20260506031650 10 266 4.8 6.4 0.00 0.00 0.00 48 1007.6
20260506031147 10 277 3.2 6.4 0.00 0.00 0.00 48 1007.8
20260506030646 10 138 4.8 9.7 0.00 0.00 0.00 49 1007.9
20260506030143 10 261 8.0 9.7 0.00 0.00 0.00 47 1007.9
20260506025640 10 261 4.8 6.4 0.00 0.00 0.00 48 1007.9
20260506025136 10 257 6.4 9.7 0.00 0.00 0.00 47 1007.8
20260506024634 10 278 8.0 9.7 0.00 0.00 0.00 46 1007.9
20260506024129 10 324 6.4 9.7 0.00 0.00 0.00 47 1008.0
20260506023626 10 239 8.0 11.3 0.00 0.00 0.00 47 1008.2
20260506023123 11 274 6.4 9.7 0.00 0.00 0.00 47 1007.9
20260506022621 10 248 6.4 9.7 0.00 0.00 0.00 47 1007.8
20260506022118 10 299 3.2 9.7 0.00 0.00 0.00 47 1007.8
20260506021616 11 253 4.8 4.8 0.00 0.00 0.00 47 1007.7
20260506021113 11 318 3.2 4.8 0.00 0.00 0.00 47 1007.5
20260506020610 11 351 3.2 4.8 0.00 0.00 0.00 47 1007.6
20260506020107 11 287 6.4 6.4 0.00 0.00 0.00 46 1007.5
20260506015605 11 273 6.4 11.3 0.00 0.00 0.00 46 1007.5
20260506015101 11 272 9.7 12.9 0.00 0.00 0.00 45 1007.6
20260506014559 11 272 8.0 9.7 0.00 0.00 0.00 46 1007.3
20260506014054 11 279 4.8 11.3 0.00 0.00 0.00 46 1007.3
20260506013553 11 240 4.8 9.7 0.00 0.00 0.00 46 1007.5
20260506013049 11 357 3.2 4.8 0.00 0.00 0.00 48 1007.3
20260506012545 11 5 3.2 6.4 0.00 0.00 0.00 46 1007.2
20260506012042 11 294 4.8 14.5 0.00 0.00 0.00 45 1007.2
20260506011541 11 268 6.4 14.5 0.00 0.00 0.00 45 1007.3
20260506011036 11 247 8.0 11.3 0.00 0.00 0.00 46 1007.5
20260506010536 11 263 6.4 9.7 0.00 0.00 0.00 46 1007.3
20260506010032 11 241 6.4 11.3 0.00 0.00 0.00 47 1007.2
20260506005529 11 281 6.4 6.4 0.00 0.00 0.00 48 1007.4
20260506005025 11 287 4.8 6.4 0.00 0.00 0.00 49 1007.1
20260506004523 11 248 3.2 9.7 0.00 0.00 0.00 51 1007.1
20260506004019 11 276 9.7 11.3 0.00 0.00 0.00 51 1007.0
20260506003516 11 283 4.8 6.4 0.00 0.00 0.00 52 1007.0
20260506003012 11 352 3.2 4.8 0.00 0.00 0.00 54 1007.1
20260506002508 11 280 3.2 4.8 0.00 0.00 0.00 54 1007.1
20260506002003 11 251 4.8 4.8 0.00 0.00 0.00 53 1006.9
20260506001500 12 283 3.2 4.8 0.00 0.00 0.00 54 1006.8
20260506000958 12 270 6.4 6.4 0.00 0.00 0.00 52 1006.7
20260506000455 12 344 1.6 3.2 0.00 0.00 0.00 55 1006.7
20260505235952 12 299 3.2 6.4 0.00 0.00 0.00 53 1006.7
20260505235450 12 246 6.4 6.4 0.00 0.00 0.00 53 1006.6
20260505234947 12 252 3.2 4.8 0.00 0.00 0.00 53 1006.7
20260505234444 12 270 4.8 6.4 0.00 0.00 0.00 54 1006.5
20260505233940 12 289 4.8 4.8 0.00 0.00 0.00 54 1006.3
20260505233438 12 348 1.6 4.8 0.00 0.00 0.00 56 1006.4
20260505232936 12 178 3.2 4.8 0.00 0.00 0.00 55 1006.4
20260505232434 12 317 3.2 4.8 0.00 0.00 0.00 56 1006.4
20260505231930 12 244 6.4 9.7 0.00 0.00 0.00 54 1006.5
20260505231428 12 291 3.2 6.4 0.00 0.00 0.00 54 1006.6
20260505230926 12 193 3.2 4.8 0.00 0.00 0.00 54 1006.5
20260505230423 12 244 8.0 9.7 0.00 0.00 0.00 54 1006.5
20260505225919 12 283 6.4 9.7 0.00 0.00 0.00 54 1006.6
20260505225417 12 265 12.9 14.5 0.00 0.00 0.00 54 1006.8
20260505224912 12 286 6.4 11.3 0.00 0.00 0.00 53 1006.4
20260505224409 12 242 12.9 14.5 0.00 0.00 0.00 53 1006.5
20260505223906 12 252 6.4 9.7 0.00 0.00 0.00 54 1006.6
20260505223403 12 336 6.4 14.5 0.00 0.00 0.00 55 1006.6
20260505222859 12 275 8.0 11.3 0.00 0.00 0.00 54 1006.8
20260505222356 12 268 11.3 16.1 0.00 0.00 0.00 53 1006.7
20260505221852 12 218 9.7 17.7 0.00 0.00 0.00 54 1006.7
20260505221349 12 257 6.4 16.1 0.00 0.00 0.00 54 1006.7
20260505220846 12 253 11.3 16.1 0.00 0.00 0.00 55 1006.7
20260505220343 13 263 11.3 16.1 0.00 0.00 0.00 55 1006.6
20260505215841 13 232 8.0 11.3 0.00 0.00 0.00 58 1006.7
20260505215339 13 288 6.4 12.9 0.00 0.00 0.00 58 1006.7
20260505214837 13 253 6.4 11.3 0.00 0.00 0.00 57 1006.7
20260505214334 12 263 6.4 9.7 0.00 0.00 0.00 58 1006.7
20260505213831 12 264 9.7 12.9 0.00 0.00 0.00 57 1006.6
20260505213329 12 260 8.0 9.7 0.00 0.00 0.00 58 1006.8
20260505212824 12 243 6.4 14.5 0.00 0.00 0.00 58 1006.8
20260505212322 12 285 9.7 16.1 0.00 0.00 0.00 57 1006.7
20260505211818 12 220 4.8 17.7 0.00 0.00 0.00 58 1006.8
20260505211316 12 253 6.4 14.5 0.00 0.00 0.00 57 1006.6
20260505210812 12 256 11.3 16.1 0.00 0.00 0.00 57 1006.4
20260505210309 12 241 4.8 9.7 0.00 0.00 0.00 59 1006.7
20260505205806 12 252 9.7 12.9 0.00 0.00 0.00 56 1006.7
20260505205305 12 266 14.5 22.5 0.00 0.00 0.00 57 1006.4
20260505204800 12 283 6.4 11.3 0.00 0.00 0.00 58 1006.5
20260505204258 12 249 8.0 9.7 0.00 0.00 0.00 57 1006.8
20260505203755 12 344 3.2 12.9 0.00 0.00 0.00 58 1006.7
20260505203252 12 254 4.8 6.4 0.00 0.00 0.00 58 1006.7
20260505202749 12 316 4.8 11.3 0.00 0.00 0.00 57 1006.5
20260505202244 12 250 9.7 16.1 0.00 0.00 0.00 57 1006.6
20260505201741 12 218 6.4 9.7 0.00 0.00 0.00 57 1006.7
20260505201239 12 260 4.8 9.7 0.00 0.00 0.00 58 1006.8
20260505200737 12 335 14.5 20.9 0.00 0.00 0.00 58 1007.0
20260505200234 12 281 12.9 17.7 0.00 0.00 0.00 57 1006.7
20260505195729 12 254 8.0 12.9 0.00 0.00 0.00 58 1007.0
20260505195227 12 244 9.7 11.3 0.00 0.00 0.00 57 1007.0
20260505194724 12 205 11.3 14.5 0.00 0.00 0.00 57 1006.9
20260505194220 12 249 8.0 11.3 0.00 0.00 0.00 60 1006.9
20260505193716 12 10 9.7 16.1 0.00 0.00 0.00 57 1006.8
20260505193214 12 255 11.3 20.9 0.00 0.00 0.00 57 1006.9
20260505192712 12 251 16.1 17.7 0.00 0.00 0.00 57 1006.9
20260505192209 12 263 6.4 12.9 0.00 0.00 0.00 58 1006.8
20260505191708 12 262 9.7 12.9 0.00 0.00 0.00 59 1007.0
20260505191206 12 210 11.3 17.7 0.00 0.00 0.00 59 1006.9
20260505190702 12 283 4.8 9.7 0.00 0.00 0.00 65 1007.0
20260505190201 12 266 6.4 11.3 0.00 0.00 0.00 65 1007.0
20260505185658 12 288 4.8 11.3 0.00 0.00 0.00 67 1007.0
20260505185155 12 257 9.7 12.9 0.00 0.00 0.00 66 1006.9
20260505184651 12 264 4.8 4.8 0.00 0.00 0.00 66 1006.8
20260505184148 12 255 6.4 12.9 0.00 0.00 0.00 66 1006.8
20260505183645 12 346 4.8 6.4 0.00 0.00 0.00 66 1006.7
20260505183143 12 252 6.4 6.4 0.00 0.00 0.00 67 1006.6
20260505182638 12 248 6.4 11.3 0.00 0.00 0.00 68 1006.6
20260505182136 12 23 1.6 4.8 0.00 0.00 0.00 66 1006.7
20260505181632 12 232 3.2 11.3 0.00 0.00 0.00 66 1006.6
20260505181130 12 300 3.2 12.9 0.00 0.00 0.00 67 1006.5
20260505180625 12 158 3.2 4.8 0.00 0.00 0.00 67 1006.7
20260505180123 11 288 4.8 9.7 0.00 0.00 0.00 69 1006.7
20260505175619 11 255 4.8 6.4 0.00 0.00 0.00 69 1006.4
20260505175116 11 297 6.4 11.3 0.00 0.00 0.00 68 1006.4
20260505174612 11 19 1.6 9.7 0.00 0.00 0.00 69 1006.5
20260505174108 11 56 1.6 3.2 0.00 0.00 0.00 69 1006.5
20260505173605 11 34 0.0 1.6 0.00 0.00 0.00 69 1006.2
20260505173102 11 53 0.0 3.2 0.00 0.00 0.00 69 1006.4
20260505172600 11 69 1.6 1.6 0.00 0.00 0.00 69 1006.3
20260505172057 10 91 3.2 3.2 0.00 0.00 0.00 72 1006.4
20260505171556 10 63 1.6 3.2 0.00 0.00 0.00 71 1006.3
20260505171054 10 59 1.6 1.6 0.00 0.00 0.00 72 1006.4
20260505170551 10 67 1.6 1.6 0.00 0.00 0.00 71 1006.7
20260505170047 10 273 4.8 6.4 0.00 0.00 0.00 70 1006.8
20260505165542 10 36 0.0 0.0 0.00 0.00 0.00 68 1006.4
20260505165038 10 22 1.6 1.6 0.00 0.00 0.00 69 1006.4
20260505164535 9 67 0.0 0.0 0.00 0.00 0.00 72 1006.7
20260505164032 9 67 0.0 1.6 0.00 0.00 0.00 73 1006.5
20260505163531 9 72 1.6 3.2 0.00 0.00 0.00 73 1006.5
20260505163027 9 73 1.6 3.2 0.00 0.00 0.00 73 1006.4
20260505162521 9 50 0.0 1.6 0.00 0.00 0.00 71 1006.2
20260505162018 9 51 0.0 1.6 0.00 0.00 0.00 70 1006.6
20260505161514 9 28 1.6 1.6 0.00 0.00 0.00 69 1006.6
20260505161011 9 29 0.0 0.0 0.00 0.00 0.00 67 1006.5
20260505160510 10 56 1.6 4.8 0.00 0.00 0.00 65 1006.2
20260505152946 10 40 1.6 3.2 0.00 0.00 0.00 64 1006.4
20260505152443 10 35 1.6 3.2 0.00 0.00 0.00 60 1006.5
20260505151943 10 40 0.0 3.2 0.00 0.00 0.00 60 1006.5
20260505151439 10 18 1.6 1.6 0.00 0.00 0.00 59 1006.1
20260505150937 10 26 1.6 3.2 0.00 0.00 0.00 59 1005.9
20260505150434 10 64 3.2 4.8 0.00 0.00 0.00 57 1005.8
20260505140404 11 23 4.8 6.4 0.00 0.00 0.00 60 1005.5
20260505124817 10 20 6.4 11.3 0.00 0.00 0.00 58 1004.1
20260505124314 10 10 4.8 9.7 0.00 0.00 0.00 63 1004.2
20260505123810 10 37 3.2 12.9 0.00 0.00 0.00 62 1004.1
20260505123307 10 116 4.8 6.4 0.00 0.00 0.00 61 1004.1
20260505122803 10 21 3.2 3.2 0.00 0.00 0.00 64 1004.1
20260505122301 10 32 3.2 4.8 0.00 0.00 0.00 64 1003.9
20260505121756 10 13 3.2 6.4 0.00 0.00 0.00 64 1004.0
20260505121253 10 22 6.4 12.9 0.00 0.00 0.00 64 1003.7
20260505120750 10 26 4.8 9.7 0.00 0.00 0.00 64 1003.9
20260505120246 9 25 11.3 14.5 0.00 0.00 0.00 65 1003.7
20260505115745 9 16 12.9 16.1 0.00 0.00 0.00 66 1003.4
20260505115243 10 24 3.2 6.4 0.00 0.00 0.00 68 1003.2
20260505114740 10 11 6.4 9.7 0.00 0.00 0.00 67 1003.5
20260505114236 10 8 6.4 6.4 0.00 0.00 0.00 68 1003.3
20260505113733 9 26 4.8 9.7 0.00 0.00 0.00 68 1003.1
20260505113229 9 43 4.8 11.3 0.00 0.00 0.00 68 1003.2
20260505112725 9 1 6.4 11.3 0.00 0.00 0.00 68 1003.0
20260505112223 9 30 3.2 9.7 0.00 0.00 0.00 69 1002.9
20260505111723 9 359 8.0 14.5 0.00 0.00 0.00 68 1002.5
20260505111219 9 35 4.8 9.7 0.00 0.00 0.00 71 1002.8
20260505110715 9 12 6.4 14.5 0.00 0.00 0.00 72 1002.4
20260505110213 9 356 4.8 11.3 0.00 0.00 0.00 74 1002.7
20260505102148 15 306 3.2 3.2 0.00 0.00 0.00 75 1000.8
20260505101647 15 277 3.2 4.8 0.00 0.00 0.00 75 1000.9
20260505101143 15 308 3.2 4.8 0.00 0.00 0.00 74 1000.9
20260505100639 15 232 9.7 11.3 0.00 0.00 0.00 74 1000.5
20260505100136 15 253 4.8 6.4 0.00 0.00 0.00 73 1000.7
20260505095632 15 233 8.0 9.7 0.00 0.00 0.00 73 1000.8
20260505095129 15 294 3.2 11.3 0.00 0.00 0.00 72 1000.5
20260505094626 15 265 8.0 11.3 0.00 0.00 0.00 72 1000.5
20260505094122 15 268 8.0 12.9 0.00 0.00 0.00 71 1000.6
20260505093618 15 268 9.7 11.3 0.00 0.00 0.00 71 1000.2
20260505093115 15 305 4.8 14.5 0.00 0.00 0.00 71 1000.6
20260505092612 15 262 6.4 6.4 0.00 0.00 0.00 70 1000.2